x

Stonewall Bank - 20nm West Of Newport, Or (46050) Wave Buoy

1:50pm - Tue 16th Oct 2018 All times are PDT. -7 hours from GMT.

  • Sig Wave height 3.0ft
  • Swell Direction
  • Peak Period 11s
  • Average Period 10s
  • Wind
    7mph, 7mph gusts
  • Sea Temp 55°f
  • Sea Pressure 1021.8mb
  • Stonewall Bank - 20nm West Of Newport, Or
  • Stonewall Bank - 20nm West Of Newport, Or

More Historic Weather Station data

Upgrade to MSW Pro to gain access to the past 30 days of data for over 8000 Wavebouys and Weather Stations around the globe.

Join

Comparision Forecast

View Surf forecast
   
Tue 10/16 1:50pm 3ft 11s 10s 7 7 mph 1021.8mb 55f
1:40pm  -   -   -  7 7 mph 1021.7mb 55f
1:30pm  -   -   -  4 7 mph 1021.9mb 55f
1:20pm  -   -   -  4 7 mph 1022mb 55f
1:10pm  -   -   -  4 7 mph 1022.2mb 56f
1:00pm  -   -   -  4 7 mph 1022.3mb 55f
12:50pm 2.5ft 15s 10s 4 7 mph 1022.4mb 55f
12:40pm 2.5ft  -  10s 4 7 mph 1022.6mb -
12:30pm  -   -   -  7 7 mph 1022.7mb 56f
12:20pm  -   -   -  4 7 mph 1022.8mb 56f
12:10pm  -   -   -  4 7 mph 1022.9mb 55f
12:00pm  -   -   -  7 7 mph 1022.9mb 55f
11:50am 3.5ft 16s 11s 4 7 mph 1023mb 55f
11:40am  -   -   -  4 7 mph 1022.9mb 55f
11:30am  -   -   -  7 7 mph 1022.8mb 55f
11:20am  -   -   -  4 7 mph 1022.8mb 55f
11:10am  -   -   -  4 7 mph 1022.9mb 55f
11:00am  -   -   -  4 7 mph 1022.9mb 55f
10:50am 3ft 16s 10s 4 7 mph 1023mb 55f
10:40am 3ft  -  10s 4 4 mph 1023mb 55f
10:30am  -   -   -  4 7 mph 1023mb 55f
10:20am  -   -   -  7 7 mph 1022.9mb 55f
10:10am  -   -   -  9 9 mph 1022.9mb 55f
10:00am  -   -   -  7 9 mph 1022.8mb 55f
9:20am  -   -   -  9 11 mph 1022.8mb 55f
9:10am  -   -   -  7 11 mph 1022.8mb 55f
9:00am  -   -   -  9 11 mph 1022.6mb 55f
8:50am 3.5ft 11s 10s 9 11 mph 1022.6mb 55f
8:40am  -   -   -  9 11 mph 1022.6mb 55f
8:30am  -   -   -  4 7 mph 1022.6mb 55f
8:20am  -   -   -  4 9 mph 1022.4mb 55f